Location: ?????????
(54.7630°N, 39.4991°E)
Time: 10:18:36
(UTC+00:00)

Cosmos 2322 - Pass Details

Date: 14 April 2026
Orbit: 839 x 854 km, 71.0° (Epoch: 19 May)

Event Time Altitude Azimuth Distance (km) Brightness Sun altitude
Rises 18:23:06 0° 220° (SW) 3,410 6.8 -15.5°
Reaches altitude 10° 18:25:34 10° 223° (SW) 2,479 6.1 -15.8°
Maximum altitude 18:31:15 70° 307° (NW) 912 4.0 -16.3°
Drops below altitude 10° 18:36:59 10° 31° (NNE) 2,497 6.3 -16.9°
Sets 18:39:28 0° 34° (NE) 3,437 7.1 -17.1°
